#timestamp,LO_Frequency,Hit,StdDev 
1553353215.2,286047002.5,N
1553353235.0,286047001.9,N
1553353235.9,286047001.9,N
1553353255.8,286046999.8,N
1553353275.6,286047004.4,N
1553353295.5,286047002.7,N
1553353315.3,286047001.8,N
1553353335.1,286047002.1,N
1553353355.9,286047004.0,N
1553353375.7,286047002.0,N
1553353395.5,286047000.6,N
1553353415.4,286047002.3,N
1553353435.2,286047002.7,N
1553353455.1,286047002.3,N
1553353456.0,286047002.3,N
1553353475.8,286047000.9,N
1553353495.6,286046999.8,N
1553353515.5,286047003.8,N
1553353535.3,286047002.4,N
1553353555.1,286047002.2,N
1553353575.9,286047000.1,N
1553353595.7,286047002.8,N
1553353615.6,286047000.4,N
1553353635.4,286047002.4,N
1553353655.2,286047002.8,N
1553353675.1,286047000.9,N
1553353676.0,286047000.9,N
1553353695.8,286047000.0,N
1553353715.7,286047000.8,N
1553353735.5,286047000.6,N
1553353755.3,286047002.8,N
1553353775.2,286047000.6,N
1553353795.9,286046998.3,N
1553353815.7,286046998.8,N
1553353835.6,286046997.1,N
1553353855.4,286046999.3,N
1553353875.3,286046996.8,N
1553353895.1,286046993.7,Y
1553353896.0,286046993.7,P
1553353915.8,286046994.3,N
1553353935.7,286046990.6,N
1553353955.5,286046988.9,N
1553353975.3,286046985.9,Y
1553353995.2,286046992.7,P
1553354015.0,286046992.8,P
1553354015.9,286046992.8,P
1553354035.8,286046991.3,Y
1553354055.6,286046997.9,P
1553354075.4,286046995.8,N
1553354095.3,286046995.0,N
1553354115.1,286046999.5,N
1553354135.9,286046996.9,N
1553354155.7,286046998.8,N
1553354175.5,286046996.9,N
1553354195.4,286046999.5,N
1553354215.2,286046999.4,N
1553354235.1,286046999.6,N
1553354236.0,286046999.6,N
1553354255.8,286046999.5,N
1553354275.6,286046997.8,N
1553354295.5,286046996.8,N
1553354315.3,286046999.2,N
1553354335.1,286047000.3,N
1553354355.9,286047000.9,N
1553354375.7,286047001.7,N
1553354395.6,286046999.8,N
1553354415.4,286047001.5,N
1553354435.2,286047002.7,N
1553354455.1,286047001.7,N
1553354456.0,286047001.7,N
1553354475.8,286047000.0,N
1553354495.7,286047002.2,N
1553354515.5,286047003.2,N
1553354535.3,286047005.6,N
1553354555.2,286047007.6,N
1553354575.9,286047007.6,N
1553354595.7,286047007.6,N
1553354615.6,286047007.0,N
1553354635.4,286047007.6,N
1553354655.3,286047004.6,N
1553354675.1,286047005.8,N
1553354676.0,286047005.8,N
1553354695.8,286047003.8,N
1553354715.7,286047004.4,N
1553354735.5,286047001.3,N
1553354755.3,286047003.9,N
1553354775.2,286047002.4,N
1553354795.0,286047000.6,N
1553354795.9,286047000.6,N
1553354815.8,286047000.6,N
1553354835.6,286047002.7,N
1553354855.4,286047004.4,N
1553354875.3,286047004.2,N
1553354895.1,286047002.9,N
1553354915.9,286047003.7,N
1553354935.7,286047003.7,N
1553354955.5,286047005.5,N
1553354975.4,286047006.9,Y
1553354995.2,286047003.8,P
1553355015.0,286047003.2,P
1553355015.9,286047003.2,P
1553355035.8,286047005.1,Y
1553355055.6,286047003.5,P
1553355075.5,286047001.4,P
1553355095.3,286047001.6,N
1553355115.1,286047003.7,Y
1553355135.9,286047000.6,P
1553355155.7,286046999.2,N
1553355175.6,286046999.6,N
1553355195.4,286046995.8,Y
1553355215.2,286046992.0,P
1553355235.1,286046990.1,N
1553355236.0,286046990.1,N
1553355255.8,286046992.2,N
1553355275.7,286046993.8,N
1553355295.5,286046992.0,N
1553355315.3,286046992.1,N
1553355335.2,286046993.9,N
1553355355.0,286046993.3,N
1553355355.9,286046993.3,N
1553355375.7,286046997.7,N
1553355395.6,286046995.6,N
1553355415.4,286046996.3,N
1553355435.3,286046993.5,N
1553355455.1,286046994.0,N
1553355456.0,286046994.0,N
1553355475.8,286046992.2,Y
1553355495.7,286046998.1,P
1553355515.5,286046998.2,N
1553355535.4,286046999.1,N
1553355555.2,286046993.4,Y
1553355575.0,286046994.3,P
1553355575.9,286046994.3,P
1553355595.8,286046990.3,P
1553355615.6,286046987.3,Y
1553355635.5,286046994.1,P
1553355655.3,286046996.2,P
1553355675.1,286046995.4,P
1553355695.9,286046995.6,Y
1553355715.7,286046998.6,P
1553355735.5,286047000.0,N
1553355755.4,286047002.5,N
1553355775.2,286047003.1,N
1553355795.1,286047005.0,N
1553355796.0,286047005.0,N
1553355815.8,286047005.7,N
1553355835.6,286047005.6,N
1553355855.5,286047005.6,N
1553355875.3,286047003.7,N
1553355895.2,286047001.8,N
1553355915.9,286047005.1,N
1553355935.7,286047005.2,N
1553355955.6,286047005.7,N
1553355975.4,286047004.9,N
1553355995.2,286047006.3,N
1553356015.1,286047006.3,N
1553356016.0,286047006.3,N
1553356035.8,286047010.3,Y
1553356055.7,286047004.6,P
1553356075.5,286047007.0,P
1553356095.3,286047006.5,P
1553356115.2,286047008.0,Y
1553356135.0,286047004.4,P
1553356135.9,286047004.4,P
1553356155.8,286047002.1,P
1553356175.6,286047003.9,Y
1553356195.4,286046997.0,P
1553356215.3,286047000.8,N
1553356235.1,286046996.5,N
1553356255.9,286046997.9,N
1553356275.7,286046996.5,N
1553356295.5,286046996.6,N
1553356315.4,286046997.8,N
1553356335.2,286046999.1,N
1553356355.0,286046997.7,N
1553356355.9,286046997.7,N
1553356375.8,286046999.4,N
1553356395.6,286046999.5,N
1553356415.5,286046999.4,N
1553356435.3,286046999.3,N
1553356455.1,286046997.0,N
1553356475.9,286046997.7,N
1553356495.7,286046997.9,N
1553356515.5,286046998.0,N
1553356535.4,286046998.0,N
1553356555.2,286046995.8,N
1553356575.1,286046997.6,N
1553356576.0,286046997.6,N
1553356595.8,286046997.9,N
1553356615.6,286046997.8,N
1553356635.5,286046998.1,N
1553356655.3,286047001.0,N
1553356675.1,286047001.2,N
1553356695.9,286046996.6,N
1553356715.7,286046998.1,N
1553356735.6,286046999.2,N
1553356755.4,286046999.1,N
1553356775.2,286046999.4,N
1553356795.1,286046998.5,N
1553356796.0,286046998.5,N
